Flag for Brazil Weather past 2 weeks in Santarém, Pará, Brazil

Now
81 °F

Clear.


Feels Like: 86 °F
Forecast: 75 / 87 °F
Wind: 9 mph from Northeast

Location: Santarem-Aeroporto

Current Time: Aug 5, 2015 at 6:08:26 AM

Latest Report: Aug 5, 2015 at 5:00 AM


Visibility: 10 mi

Pressure: 29.89 "Hg

Humidity: 84%

Dew point: 75 °F

Location of SantarémLocation

Historic Weather in Santarém — Graph

°F

Santarém temperature yesterday

Maximum temperature yesterday: 88 °F (at 1:00 PM)
Minimum temperature yesterday: 73 °F (at 3:00 AM)
Average temperature yesterday: 81 °F

Past Weeks' High & Low Weather Summary

 TemperatureHumidityPressure
High88 °F (Jul 21, 2:00 PM)100% (Jul 21, 5:00 AM)30.01 "Hg (Jul 21, 5:00 AM)
Low37 °F (Jul 26, 5:00 AM)24% (Jul 30, 5:00 AM)29.80 "Hg (Aug 2, 4:00 PM)
Average80 °F86%29.90 "Hg
* Reported Jul 21 5:00 AM — Aug 5 5:00 AM, Santarém, Weather by CustomWeather, © 2015

Note: Actual official high and low records may vary slightly from our data, if they occured in-between our weather recording intervals... More about our weather records

Advertising

Santarém weather history for previous 24 hours

 ConditionsComfort  
Time TempWeatherWind HumidityBarometerVisibility
5:00 AM
Wed, Aug 5
81 °FClear.9 mph84%29.89 "Hg10 mi
4:00 AM81 °FPassing clouds.7 mph84%29.89 "HgN/A
3:00 AM82 °FPassing clouds.7 mph79%29.89 "HgN/A
2:00 AM81 °FPassing clouds.3 mph84%29.89 "HgN/A
1:00 AM79 °FPassing clouds.5 mph89%29.92 "HgN/A
12:00 AM75 °FClear.2 mph100%29.92 "Hg10 mi
11:00 PM
Tue, Aug 4
77 °FClear.1 mph94%29.92 "Hg10 mi
10:00 PM77 °FClear.1 mph94%29.92 "Hg10 mi
9:00 PM77 °FClear.No wind94%29.89 "Hg10 mi
8:00 PM79 °FClear.2 mph89%29.86 "Hg10 mi
7:00 PM82 °FSunny.3 mph79%29.86 "Hg10 mi
6:00 PM86 °FPassing clouds.8 mph70%29.86 "HgN/A
5:00 PM88 °FPassing clouds.9 mph66%29.86 "HgN/A
4:00 PM88 °FPassing clouds.8 mph66%29.86 "HgN/A
3:00 PM88 °FPassing clouds.9 mph66%29.89 "HgN/A
2:00 PM88 °FPassing clouds.13 mph70%29.92 "HgN/A
1:00 PM88 °FScattered clouds.8 mph70%29.95 "HgN/A
12:00 PM86 °FPassing clouds.14 mph75%29.98 "HgN/A
11:00 AM84 °FScattered clouds.12 mph74%29.98 "HgN/A
10:00 AM84 °FScattered clouds.10 mph74%29.98 "HgN/A
9:00 AM82 °FScattered clouds.8 mph79%29.98 "HgN/A
8:00 AM81 °FScattered clouds.6 mph84%29.95 "HgN/A
7:00 AM79 °FPassing clouds.7 mph84%29.95 "HgN/A
6:00 AM79 °FPassing clouds.12 mph84%29.92 "HgN/A
Weather by CustomWeather, © 2015

See weather overviewHow to use our weather pages